Flag for U.S.A. Weather past 2 weeks in Charlottesville, Virginia, U.S.A.

Now
75 °F

Passing clouds.


Feels Like: 76 °F
Forecast: 69 / 87 °F
Wind: 3 mph from Southwest

Location: Charlottesville-Albemarle Airport

Current Time: Aug 31, 2015 at 1:06:23 AM

Latest Report: Aug 30, 2015 at 11:53 PM


Visibility: 10 mi

Pressure: 30.08 "Hg

Humidity: 76%

Dew point: 67 °F

Location of CharlottesvilleLocation

Historic Weather in Charlottesville — Graph

°F

Charlottesville temperature yesterday

Maximum temperature yesterday: 89 °F (at 2:53 PM)
Minimum temperature yesterday: 66 °F (at 4:53 AM)
Average temperature yesterday: 76 °F

Past Weeks' High & Low Weather Summary

 TemperatureHumidityPressure
High92 °F (Aug 17, 3:53 PM)97% (Aug 20, 2:00 AM)30.21 "Hg (Aug 20, 2:00 AM)
Low58 °F (Aug 22, 6:53 AM)31% (Aug 17, 4:53 PM)29.80 "Hg (Aug 24, 4:53 PM)
Average74 °F71%30.03 "Hg
* Reported Aug 15 10:53 PM — Aug 30 10:53 PM, Charlottesville, Weather by CustomWeather, © 2015

Note: Actual official high and low records may vary slightly from our data, if they occured in-between our weather recording intervals... More about our weather records

Advertising

Charlottesville weather history for previous 24 hours

 ConditionsComfort  
Time TempWeatherWind HumidityBarometerVisibility
10:53 PM
Sun, Aug 30
76 °FPassing clouds.No wind74%30.09 "Hg10 mi
9:53 PM76 °FClear.No wind77%30.09 "Hg10 mi
8:53 PM77 °FClear.No wind74%30.08 "Hg10 mi
7:53 PM78 °FSunny.3 mph66%30.07 "Hg10 mi
6:53 PM80 °FScattered clouds.7 mph62%30.06 "Hg10 mi
5:53 PM82 °FScattered clouds.7 mph58%30.07 "Hg10 mi
4:53 PM85 °FSunny.6 mph50%30.07 "Hg10 mi
3:53 PM86 °FSunny.6 mph46%30.07 "Hg10 mi
2:53 PM89 °FSunny.6 mph39%30.08 "Hg10 mi
1:53 PM85 °FSunny.3 mph48%30.10 "Hg10 mi
12:53 PM85 °FSunny.No wind51%30.12 "Hg10 mi
11:53 AM79 °FSunny.5 mph69%30.13 "Hg10 mi
10:53 AM78 °FSunny.No wind66%30.14 "Hg10 mi
9:53 AM72 °FSunny.No wind76%30.13 "Hg10 mi
8:53 AM69 °FSunny.No wind84%30.13 "Hg10 mi
7:53 AM68 °FSunny.No wind87%30.12 "Hg8 mi
6:53 AM66 °FClear.3 mph90%30.11 "Hg7 mi
5:53 AM66 °FFog.No wind90%30.10 "Hg6 mi
4:53 AM66 °FClear.3 mph90%30.09 "Hg10 mi
3:53 AM68 °FPassing clouds.6 mph84%30.09 "Hg10 mi
2:53 AM67 °FClear.No wind90%30.09 "Hg8 mi
1:53 AM70 °FPassing clouds.5 mph79%30.10 "Hg10 mi
Weather by CustomWeather, © 2015

See weather overviewHow to use our weather pages